[Date Prev][Date Next][Thread Prev][Thread Next] - [Date Index][Thread Index][Author Index]
2 Line ISS Keps 1-15
- Subject: [sarex] 2 Line ISS Keps 1-15
- From: "Dave Larsen PhD" <doc@xxxxxxxxxxx>
- Date: Thu, 15 Jan 2004 02:59:47 -0800
ISS
1 25544U 98067A 04015.20842817 .00017405 00000-0 17285-3 0 165
2 25544 51.6299 29.3237 0007898 51.2926 350.6042 15.65836303294169
----
Via the sarex mailing list at AMSAT.ORG courtesy of AMSAT-NA.
To unsubscribe, send "unsubscribe sarex" to Majordomo@amsat.org
AMSAT Home